Weather History for Dubai International Airport, UAE

Change the Weather History Date:

Friday, July 26, 2013

  Actual Average Record
Temperature  
Mean Temperature 96 °F -  
Max Temperature 103 °F 103 °F - ()
Min Temperature 89 °F 86 °F - ()
Cooling Degree Days 31    
Growing Degree Days 46 (Base 50)    
Moisture  
Dew Point 83 °F    
Average Humidity 67    
Maximum Humidity 84    
Minimum Humidity 42    
Precipitation  
Precipitation 0.00 in 0.00 in - ()
Sea Level Pressure  
Sea Level Pressure 29.27 in    
Wind  
Wind Speed 7 mph ()    
Max Wind Speed 15 mph    
Max Gust Speed -    
Visibility 5.6 miles    
Events      
T = Trace of Precipitation, MM = Missing Value Source: Averaged Metar Reports

Daily Weather History Graph

Daily Weather History Graph

Search for Another Location

Airport:

Trip Planner

Search our weather history database for the weather conditions in past years. The results will help you decide how hot, cold, wet, or windy it might be!

Date:

Astronomy

Jul. 26, 2013 Rise Set
Actual Time 5:42 AM GST 7:07 PM GST
Civil Twilight 5:17 AM GST 7:31 PM GST
Nautical Twilight 4:48 AM GST 8:01 PM GST
Astronomical Twilight 4:17 AM GST 8:32 PM GST
Moon 9:42 PM GST (7/26) 9:21 AM GST (7/26)
Length of Visible Light 14h 14m
Length of Day
13h 24m
Waning Gibbous, 83% of the Moon is Illuminated
Jul 26
Waning Gibbous
Jul 29
Last Quarter
Aug 7
New
Aug 14
First Quarter
Aug 21
Full

Hourly Weather History & Observations

Time (GST) Temp. Heat Index Dew Point Humidity Pressure Visibility Wind Dir Wind Speed Gust Speed Precip Events Conditions
12:00 AM 93.2 °F 120.9 °F 84.2 °F 75% 29.33 in 6.2 mi WSW 8.1 mph - N/A   Scattered Clouds
1:00 AM 93 °F - 84 °F 69% 29.31 in 6 mi SW 5.8 mph - -   Partly Cloudy
1:00 AM 93.2 °F 120.9 °F 84.2 °F 75% 29.30 in 6.2 mi SW 5.8 mph - N/A   Scattered Clouds
2:00 AM 93.2 °F 117.1 °F 82.4 °F 71% 29.30 in 6.2 mi SW 5.8 mph - N/A   Partly Cloudy
3:00 AM 91.4 °F 114.3 °F 82.4 °F 75% 29.27 in 6.2 mi South 5.8 mph - N/A   Partly Cloudy
4:00 AM 91.4 °F 117.8 °F 84.2 °F 79% 29.27 in 6.2 mi SSE 6.9 mph - N/A   Partly Cloudy
5:00 AM 89.6 °F 115.0 °F 84.2 °F 84% 29.27 in 5.0 mi South 9.2 mph - N/A   Scattered Clouds
6:00 AM 89.6 °F 115.0 °F 84.2 °F 84% 29.27 in 3.7 mi South 9.2 mph - N/A   Scattered Clouds
7:00 AM 90 °F - 83 °F 76% 29.31 in 4 mi SSW 6.9 mph - -   Haze
7:00 AM 89.6 °F 115.0 °F 84.2 °F 84% 29.30 in 3.7 mi SSW 6.9 mph - N/A   Scattered Clouds
8:00 AM 89.6 °F 115.0 °F 84.2 °F 84% 29.30 in 4.3 mi South 6.9 mph - N/A   Scattered Clouds
9:00 AM 93.2 °F 117.1 °F 82.4 °F 71% 29.30 in 5.0 mi SSW 6.9 mph - N/A   Partly Cloudy
10:00 AM 95 °F - 82 °F 58% 29.31 in 6 mi SW 9.2 mph - -   Scattered Clouds
10:00 AM 95.0 °F 119.6 °F 82.4 °F 67% 29.30 in - SW 9.2 mph - N/A   Clear
11:00 AM 98.6 °F 120.3 °F 80.6 °F 56% 29.27 in - WSW 6.9 mph - N/A   Clear
12:00 PM 100.4 °F 126.1 °F 82.4 °F 56% 29.27 in - WSW 9.2 mph - N/A   Clear
1:00 PM 102 °F - 80 °F 42% 29.25 in 6 mi West 8.1 mph - -   Scattered Clouds
1:00 PM 102.2 °F 124.9 °F 80.6 °F 50% 29.24 in - West 8.1 mph - N/A   Clear
2:00 PM 102.2 °F 121.5 °F 78.8 °F 47% 29.21 in - West 11.5 mph - N/A   Clear
3:00 PM 102.2 °F 128.5 °F 82.4 °F 53% 29.21 in - West 12.7 mph - N/A   Clear
4:00 PM 99 °F - 82 °F 51% 29.22 in 6 mi WNW 15.0 mph - -  
4:00 PM 98.6 °F 124.6 °F 82.4 °F 60% 29.21 in - WNW 15.0 mph - N/A   Clear
5:00 PM 96.8 °F 121.7 °F 82.4 °F 63% 29.21 in - West 13.8 mph - N/A   Clear
6:00 PM 96.8 °F 121.7 °F 82.4 °F 63% 29.21 in - West 12.7 mph - N/A   Clear
7:00 PM 95 °F - 83 °F 63% 29.24 in 6 mi West 9.2 mph - -   Scattered Clouds
7:00 PM 95.0 °F 123.7 °F 84.2 °F 71% 29.24 in 6.2 mi West 9.2 mph - N/A   Partly Cloudy
8:00 PM 95.0 °F 119.6 °F 82.4 °F 67% 29.24 in 6.2 mi WSW 8.1 mph - N/A   Scattered Clouds
9:00 PM 93.2 °F 117.1 °F 82.4 °F 71% 29.27 in 6.2 mi West 6.9 mph - N/A   Scattered Clouds
10:00 PM 94 °F - 82 °F 61% 29.28 in 6 mi WSW 8.1 mph - -   Partly Cloudy
10:00 PM 93.2 °F 117.1 °F 82.4 °F 71% 29.27 in 6.2 mi WSW 8.1 mph - N/A   Scattered Clouds
11:00 PM 93.2 °F 117.1 °F 82.4 °F 71% 29.27 in 6.2 mi SW 8.1 mph - N/A   Scattered Clouds